Location: Amon Carter Post Office
(32.8281°N, 97.0484°W)
Time: 01:18:14
(UTC+00:00)

Lacrosse 5 rocket - Pass Details

Date: 09 July 2022
Orbit: 456 x 628 km, 57.0° (Epoch: 09 August)

Event Time Altitude Azimuth Distance (km) Brightness Sun altitude
Rises 02:16:24 0° 311° (NW) 2,591 7.0 -7.5°
Reaches altitude 10° 02:18:39 10° 302° (WNW) 1,733 5.6 -7.9°
Maximum altitude 02:22:13 34° 236° (WSW) 885 2.6 -8.6°
Drops below altitude 10° 02:25:57 10° 171° (S) 1,822 3.6 -9.2°
Enters shadow 02:27:04 - 166° (SSE) 2,236 4.0 -9.4°
